DW6558 Weather Reports


time (UTC)temp
C
wind
direction
speed
KPH
gust
KPH
rain 1hr
cm
rain 24hr
cm
rain mn
cm
humidity
%
barometer
mb
20260905220126 27 235 9.7 24.1 0.00 0.00 0.00 20 933.6
20260905215625 27 247 12.9 22.5 0.00 0.00 0.00 20 933.7
20260905215121 27 220 6.4 20.9 0.00 0.00 0.00 19 933.7
20260905214618 27 221 4.8 22.5 0.00 0.00 0.00 20 933.9
20260905214117 27 181 9.7 17.7 0.00 0.00 0.00 20 933.7
20260905213613 27 252 14.5 20.9 0.00 0.00 0.00 20 933.7
20260905213109 27 220 9.7 29.0 0.00 0.00 0.00 20 933.9
20260905212608 27 246 16.1 27.4 0.00 0.00 0.00 19 933.7
20260905212108 27 219 4.8 24.1 0.00 0.00 0.00 19 933.9
20260905211603 27 231 8.0 32.2 0.00 0.00 0.00 20 933.9
20260905211059 27 239 11.3 24.1 0.00 0.00 0.00 20 933.9
20260905210554 27 233 14.5 17.7 0.00 0.00 0.00 22 934.2
20260905210049 27 204 20.9 27.4 0.00 0.00 0.00 21 933.9
20260905205549 27 239 9.7 32.2 0.00 0.00 0.00 22 934.1
20260905205048 27 309 6.4 17.7 0.00 0.00 0.00 22 933.9
20260905204543 26 316 4.8 14.5 0.00 0.00 0.00 22 934.0
20260905204038 26 269 12.9 16.1 0.00 0.00 0.00 24 934.1
20260905203538 26 246 1.6 12.9 0.00 0.00 0.00 23 934.2
20260905203033 26 214 1.6 9.7 0.00 0.00 0.00 24 934.2
20260905202528 27 219 0.0 4.8 0.00 0.00 0.00 24 934.3
20260905202024 26 201 3.2 12.9 0.00 0.00 0.00 22 934.3
20260905201520 26 256 4.8 16.1 0.00 0.00 0.00 23 934.5
20260905201019 26 187 4.8 16.1 0.00 0.00 0.00 23 934.3
20260905200515 26 235 4.8 12.9 0.00 0.00 0.00 23 934.4
20260905200014 26 210 14.5 17.7 0.00 0.00 0.00 23 934.5
20260905195508 26 240 9.7 17.7 0.00 0.00 0.00 23 934.3
20260905195004 26 180 4.8 14.5 0.00 0.00 0.00 22 934.5
20260905194503 26 244 9.7 22.5 0.00 0.00 0.00 23 934.8
20260905194003 25 191 0.0 16.1 0.00 0.00 0.00 23 934.7
20260905193458 26 207 1.6 12.9 0.00 0.00 0.00 23 934.5
20260905192953 26 248 4.8 12.9 0.00 0.00 0.00 24 934.7
20260905192449 26 242 8.0 11.3 0.00 0.00 0.00 23 934.8
20260905191945 26 215 8.0 12.9 0.00 0.00 0.00 22 935.0
20260905191443 25 240 4.8 22.5 0.00 0.00 0.00 23 934.8
20260905190943 25 61 0.0 12.9 0.00 0.00 0.00 24 934.9
20260905190441 25 262 3.2 8.0 0.00 0.00 0.00 22 935.0
20260905185940 25 199 0.0 1.6 0.00 0.00 0.00 22 935.0
20260905185435 25 250 12.9 20.9 0.00 0.00 0.00 22 935.1
20260905184934 25 230 9.7 16.1 0.00 0.00 0.00 24 935.2
20260905184428 25 173 9.7 22.5 0.00 0.00 0.00 24 935.1
20260905183927 25 262 0.0 16.1 0.00 0.00 0.00 25 935.3
20260905183422 25 112 0.0 4.8 0.00 0.00 0.00 24 935.2
20260905182917 24 236 0.0 4.8 0.00 0.00 0.00 24 935.5
20260905182416 24 326 0.0 17.7 0.00 0.00 0.00 25 935.5
20260905181913 24 233 0.0 16.1 0.00 0.00 0.00 24 935.5
20260905181413 24 271 4.8 20.9 0.00 0.00 0.00 24 935.5
20260905180912 25 214 8.0 11.3 0.00 0.00 0.00 25 935.8
20260905180407 25 201 1.6 11.3 0.00 0.00 0.00 25 935.7
20260905175907 23 210 0.0 1.6 0.00 0.00 0.00 25 935.7
20260905175406 23 222 11.3 24.1 0.00 0.00 0.00 25 935.7
20260905174907 25 199 12.9 20.9 0.00 0.00 0.00 23 935.7
20260905174402 24 107 11.3 20.9 0.00 0.00 0.00 25 935.8
20260905173858 24 319 0.0 20.9 0.00 0.00 0.00 25 935.8
20260905173354 23 85 0.0 4.8 0.00 0.00 0.00 27 936.0
20260905172849 23 298 8.0 20.9 0.00 0.00 0.00 26 935.8
20260905172347 23 187 6.4 24.1 0.00 0.00 0.00 27 935.7
20260905171843 23 198 17.7 22.5 0.00 0.00 0.00 25 935.6
20260905171340 23 191 9.7 17.7 0.00 0.00 0.00 26 935.6
20260905170836 23 210 12.9 20.9 0.00 0.00 0.00 26 935.9
20260905170332 23 174 16.1 20.9 0.00 0.00 0.00 25 935.6
20260905165831 22 256 1.6 16.1 0.00 0.00 0.00 26 935.6
20260905165326 23 207 14.5 20.9 0.00 0.00 0.00 28 935.8
20260905164826 22 235 1.6 20.9 0.00 0.00 0.00 29 935.6
20260905164321 22 190 3.2 17.7 0.00 0.00 0.00 30 935.8
20260905163816 22 173 12.9 24.1 0.00 0.00 0.00 29 935.5
20260905163313 22 234 14.5 20.9 0.00 0.00 0.00 30 935.7
20260905162808 22 182 8.0 14.5 0.00 0.00 0.00 31 935.5
20260905162305 22 184 12.9 22.5 0.00 0.00 0.00 31 935.3
20260905161803 21 94 0.0 17.7 0.00 0.00 0.00 34 935.5
20260905161302 21 267 12.9 17.7 0.00 0.00 0.00 32 935.6
20260905160801 21 164 0.0 3.2 0.00 0.00 0.00 32 935.3
20260905160254 21 263 0.0 12.9 0.00 0.00 0.00 32 935.7
20260905155749 21 217 1.6 22.5 0.00 0.00 0.00 32 935.2
20260905155248 21 239 6.4 17.7 0.00 0.00 0.00 32 935.5
20260905154742 21 183 9.7 20.9 0.00 0.00 0.00 33 935.5
20260905154239 21 341 0.0 0.0 0.00 0.00 0.00 35 935.5
20260905153734 20 194 1.6 3.2 0.00 0.00 0.00 37 935.6
20260905153230 20 253 0.0 1.6 0.00 0.00 0.00 39 935.6
20260905152724 20 199 12.9 14.5 0.00 0.00 0.00 36 935.7
20260905152219 19 273 0.0 0.0 0.00 0.00 0.00 42 935.8
20260905151718 18 3 0.0 1.6 0.00 0.00 0.00 46 935.8
20260905151215 18 25 0.0 0.0 0.00 0.00 0.00 46 935.6
20260905150709 17 22 0.0 0.0 0.00 0.00 0.00 49 935.8
20260905150208 18 66 0.0 0.0 0.00 0.00 0.00 49 935.6
20260905145706 18 66 0.0 0.0 0.00 0.00 0.00 51 935.5
20260905145201 18 69 0.0 0.0 0.00 0.00 0.00 51 935.2
20260905144700 17 65 0.0 0.0 0.00 0.00 0.00 51 935.3
20260905144200 16 67 0.0 0.0 0.00 0.00 0.00 53 935.2
20260905143700 16 73 0.0 0.0 0.00 0.00 0.00 54 935.3
20260905143159 16 131 0.0 0.0 0.00 0.00 0.00 54 935.2
20260905142658 15 122 0.0 0.0 0.00 0.00 0.00 55 935.0
20260905142153 15 95 0.0 0.0 0.00 0.00 0.00 56 935.0
20260905141648 15 103 0.0 0.0 0.00 0.00 0.00 56 935.0
20260905141144 14 77 0.0 0.0 0.00 0.00 0.00 58 935.1
20260905140639 14 101 0.0 0.0 0.00 0.00 0.00 58 934.8
20260905140138 13 108 0.0 0.0 0.00 0.00 0.00 58 934.9
20260905135634 13 102 0.0 0.0 0.00 0.00 0.00 58 935.0
20260905135129 13 103 0.0 0.0 0.00 0.00 0.00 60 934.8
20260905134624 13 69 0.0 3.2 0.00 0.00 0.00 59 934.8
20260905134122 12 55 0.0 0.0 0.00 0.00 0.00 60 934.7
20260905133619 12 63 0.0 0.0 0.00 0.00 0.00 61 934.5
20260905133118 11 103 0.0 0.0 0.00 0.00 0.00 65 934.4
20260905132618 10 75 0.0 0.0 0.00 0.00 0.00 68 934.4
20260905132113 10 87 0.0 0.0 0.00 0.00 0.00 69 934.3
20260905131608 10 71 0.0 0.0 0.00 0.00 0.00 68 934.3
20260905131103 10 81 0.0 0.0 0.00 0.00 0.00 67 934.2
20260905130603 10 78 0.0 0.0 0.00 0.00 0.00 69 934.1
20260905130057 10 90 0.0 0.0 0.00 0.00 0.00 69 934.1
20260905125557 10 87 0.0 0.0 0.00 0.00 0.00 69 934.2
20260905125053 9 59 0.0 0.0 0.00 0.00 0.00 74 934.1
20260905124549 9 74 0.0 0.0 0.00 0.00 0.00 72 934.2
20260905124045 9 54 0.0 0.0 0.00 0.00 0.00 73 934.2
20260905123540 9 46 0.0 0.0 0.00 0.00 0.00 75 934.0
20260905123037 9 45 0.0 0.0 0.00 0.00 0.00 75 933.7
20260905122536 9 43 0.0 0.0 0.00 0.00 0.00 74 934.0
20260905122032 9 43 0.0 0.0 0.00 0.00 0.00 74 933.9
20260905121532 9 66 0.0 0.0 0.00 0.00 0.00 74 934.0
20260905121027 9 87 0.0 0.0 0.00 0.00 0.00 73 934.0
20260905120526 10 69 0.0 0.0 0.00 0.00 0.00 72 934.0
20260905120022 9 82 0.0 0.0 0.00 0.00 0.00 72 934.1
20260905115520 8 71 0.0 0.0 0.00 0.00 0.00 73 934.1
20260905115015 9 101 0.0 0.0 0.00 0.00 0.00 73 934.3
20260905114514 8 64 0.0 0.0 0.00 0.00 0.00 76 934.0
20260905114014 9 43 0.0 0.0 0.00 0.00 0.00 76 934.1
20260905113509 10 77 0.0 0.0 0.00 0.00 0.00 75 934.0
20260905113004 10 64 0.0 0.0 0.00 0.00 0.00 75 934.1
20260905112459 10 88 0.0 0.0 0.00 0.00 0.00 76 933.9
20260905111954 10 71 0.0 0.0 0.00 0.00 0.00 76 934.1
20260905111449 10 54 0.0 0.0 0.00 0.00 0.00 76 934.1
20260905110949 10 64 0.0 0.0 0.00 0.00 0.00 75 933.7
20260905110448 10 53 0.0 0.0 0.00 0.00 0.00 75 933.9
20260905105948 10 74 0.0 0.0 0.00 0.00 0.00 74 933.9
20260905105443 10 96 0.0 0.0 0.00 0.00 0.00 74 933.7
20260905104942 10 100 0.0 0.0 0.00 0.00 0.00 75 933.7
20260905104439 10 79 0.0 0.0 0.00 0.00 0.00 76 933.7
20260905103939 10 83 0.0 0.0 0.00 0.00 0.00 75 933.9
20260905103434 10 71 0.0 0.0 0.00 0.00 0.00 74 933.6
20260905102930 10 81 0.0 0.0 0.00 0.00 0.00 74 933.6
20260905102426 10 80 0.0 0.0 0.00 0.00 0.00 74 933.7
20260905101921 10 71 0.0 0.0 0.00 0.00 0.00 74 933.5
20260905101420 10 69 0.0 0.0 0.00 0.00 0.00 73 933.5
20260905100914 10 45 0.0 0.0 0.00 0.00 0.00 74 933.4
20260905100410 10 44 0.0 0.0 0.00 0.00 0.00 71 933.6
20260905095910 10 75 0.0 0.0 0.00 0.00 0.00 72 933.5
20260905095404 10 94 0.0 0.0 0.00 0.00 0.00 72 933.5
20260905094904 10 75 0.0 0.0 0.00 0.00 0.00 72 933.4
20260905094400 10 69 0.0 0.0 0.00 0.00 0.00 72 933.3
20260905093859 10 73 0.0 0.0 0.00 0.00 0.00 72 933.4
20260905093354 10 73 0.0 0.0 0.00 0.00 0.00 72 933.4
20260905092850 10 58 0.0 0.0 0.00 0.00 0.00 72 933.3
20260905092350 10 68 0.0 0.0 0.00 0.00 0.00 71 933.2
20260905091845 11 76 0.0 0.0 0.00 0.00 0.00 70 933.3
20260905091345 11 77 0.0 0.0 0.00 0.00 0.00 70 932.9
20260905090844 10 79 0.0 0.0 0.00 0.00 0.00 71 933.1
20260905090340 10 81 0.0 0.0 0.00 0.00 0.00 71 933.1
20260905085839 11 70 0.0 0.0 0.00 0.00 0.00 71 932.9
20260905085339 10 68 0.0 0.0 0.00 0.00 0.00 71 933.2
20260905084835 10 59 0.0 0.0 0.00 0.00 0.00 72 933.2
20260905084334 11 47 0.0 0.0 0.00 0.00 0.00 70 932.9
20260905083829 11 66 0.0 0.0 0.00 0.00 0.00 68 932.9
20260905083325 11 65 0.0 0.0 0.00 0.00 0.00 68 933.1
20260905082820 11 65 0.0 0.0 0.00 0.00 0.00 68 932.9
20260905082316 11 75 0.0 0.0 0.00 0.00 0.00 69 932.9
20260905081811 11 83 0.0 0.0 0.00 0.00 0.00 69 932.9
20260905081306 11 75 0.0 0.0 0.00 0.00 0.00 69 932.9
20260905080805 11 90 0.0 0.0 0.00 0.00 0.00 69 932.8
20260905080306 11 53 0.0 0.0 0.00 0.00 0.00 68 932.8
20260905075804 11 50 0.0 0.0 0.00 0.00 0.00 67 933.1
20260905075306 12 71 0.0 0.0 0.00 0.00 0.00 66 932.6
20260905074803 12 74 0.0 0.0 0.00 0.00 0.00 66 932.7
20260905074259 12 90 0.0 0.0 0.00 0.00 0.00 66 932.8
20260905073754 12 95 0.0 0.0 0.00 0.00 0.00 65 932.7
20260905073250 12 95 0.0 0.0 0.00 0.00 0.00 65 932.7
20260905072749 12 77 0.0 0.0 0.00 0.00 0.00 65 932.7
20260905072245 12 78 0.0 0.0 0.00 0.00 0.00 64 932.4
20260905071741 12 78 0.0 0.0 0.00 0.00 0.00 64 932.8
20260905071237 12 70 0.0 0.0 0.00 0.00 0.00 65 932.6
20260905070732 12 45 0.0 0.0 0.00 0.00 0.00 66 932.5
20260905070228 12 45 0.0 0.0 0.00 0.00 0.00 65 932.4
20260905065726 12 58 0.0 0.0 0.00 0.00 0.00 65 932.1
20260905065221 12 64 0.0 0.0 0.00 0.00 0.00 63 932.1
20260905064716 12 87 0.0 0.0 0.00 0.00 0.00 64 932.4
20260905064212 13 78 0.0 0.0 0.00 0.00 0.00 60 932.1
20260905063710 12 80 0.0 0.0 0.00 0.00 0.00 61 932.1
20260905063207 13 71 0.0 0.0 0.00 0.00 0.00 61 932.3
20260905062702 13 71 0.0 0.0 0.00 0.00 0.00 60 932.0
20260905062201 13 102 0.0 0.0 0.00 0.00 0.00 60 932.4
20260905061656 13 78 0.0 0.0 0.00 0.00 0.00 59 932.1
20260905061155 13 64 0.0 0.0 0.00 0.00 0.00 58 932.0
20260905060651 13 68 0.0 0.0 0.00 0.00 0.00 57 932.0
20260905060148 14 82 0.0 0.0 0.00 0.00 0.00 56 931.8
20260905055646 14 69 0.0 0.0 0.00 0.00 0.00 55 931.8
20260905055141 15 115 0.0 0.0 0.00 0.00 0.00 54 931.8
20260905054637 15 111 0.0 0.0 0.00 0.00 0.00 51 931.9
20260905054132 15 74 0.0 0.0 0.00 0.00 0.00 52 931.8
20260905053632 15 111 0.0 0.0 0.00 0.00 0.00 51 931.8
20260905053127 15 141 0.0 1.6 0.00 0.00 0.00 50 931.7
20260905052626 15 129 0.0 0.0 0.00 0.00 0.00 51 931.5
20260905052121 15 86 0.0 3.2 0.00 0.00 0.00 51 931.7
20260905051617 15 27 0.0 0.0 0.00 0.00 0.00 50 931.5
20260905051114 15 354 0.0 0.0 0.00 0.00 0.00 51 931.6
20260905050609 15 40 0.0 0.0 0.00 0.00 0.00 52 931.3
20260905050106 15 67 0.0 0.0 0.00 0.00 0.00 51 931.3
20260905045606 15 94 0.0 9.7 0.00 0.00 0.00 50 931.3
20260905045102 15 148 0.0 0.0 0.00 0.00 0.00 49 931.6
20260905044601 16 56 0.0 0.0 0.00 0.00 0.00 48 931.7
20260905044056 16 89 0.0 0.0 0.00 0.00 0.00 48 931.9
20260905043555 16 119 0.0 0.0 0.00 0.00 0.00 47 931.8
20260905043051 16 128 0.0 0.0 0.00 0.00 0.00 47 932.0
20260905042549 15 89 0.0 0.0 0.00 0.00 0.00 48 932.0
20260905042044 15 47 0.0 0.0 0.00 0.00 0.00 49 932.0
20260905041540 16 51 0.0 0.0 0.00 0.00 0.00 48 931.9
20260905041035 16 53 0.0 0.0 0.00 0.00 0.00 49 931.6
20260905040535 16 55 0.0 0.0 0.00 0.00 0.00 48 931.8
20260905040033 16 80 0.0 0.0 0.00 0.00 0.00 46 931.7
20260905035529 16 84 0.0 0.0 0.00 0.00 0.00 45 931.7
20260905035026 17 80 0.0 0.0 0.00 0.00 0.00 45 931.7
20260905034522 17 87 0.0 0.0 0.00 0.00 0.00 43 931.7
20260905034021 17 62 0.0 0.0 0.00 0.00 0.00 44 931.6
20260905033521 17 67 0.0 0.0 0.00 0.00 0.00 44 931.6
20260905033017 17 87 0.0 1.6 0.00 0.00 0.00 45 931.8
20260905032511 17 79 0.0 0.0 0.00 0.00 0.00 44 931.7
20260905032007 18 71 0.0 0.0 0.00 0.00 0.00 41 931.3
20260905031502 18 71 0.0 0.0 0.00 0.00 0.00 40 931.6
20260905030957 18 107 0.0 0.0 0.00 0.00 0.00 41 931.1
20260905030452 18 90 0.0 0.0 0.00 0.00 0.00 41 931.2
20260905025951 18 165 0.0 0.0 0.00 0.00 0.00 40 931.2
20260905025447 18 73 0.0 0.0 0.00 0.00 0.00 39 931.1
20260905024943 18 61 0.0 0.0 0.00 0.00 0.00 39 931.0
20260905024443 19 65 0.0 0.0 0.00 0.00 0.00 38 931.0
20260905023939 20 115 0.0 0.0 0.00 0.00 0.00 37 931.1
20260905023434 19 95 0.0 0.0 0.00 0.00 0.00 39 931.0
20260905022933 19 65 0.0 0.0 0.00 0.00 0.00 40 930.9
20260905022428 20 61 0.0 0.0 0.00 0.00 0.00 41 930.9
20260905021923 20 60 0.0 0.0 0.00 0.00 0.00 41 930.8
20260905021424 21 60 0.0 0.0 0.00 0.00 0.00 37 930.8
20260905020919 21 61 0.0 0.0 0.00 0.00 0.00 33 930.9
20260905020418 22 61 0.0 0.0 0.00 0.00 0.00 31 931.0
20260905015918 22 104 0.0 0.0 0.00 0.00 0.00 29 930.9
20260905015416 23 102 0.0 0.0 0.00 0.00 0.00 29 930.8
20260905014916 23 163 0.0 0.0 0.00 0.00 0.00 28 930.9
20260905014412 23 174 0.0 0.0 0.00 0.00 0.00 28 931.0
20260905013912 24 169 0.0 3.2 0.00 0.00 0.00 27 930.8
20260905013408 25 253 0.0 0.0 0.00 0.00 0.00 26 930.7
20260905012903 25 175 0.0 0.0 0.00 0.00 0.00 26 930.4
20260905012358 25 236 0.0 14.5 0.00 0.00 0.00 25 930.9
20260905011855 25 170 0.0 8.0 0.00 0.00 0.00 25 930.8
20260905011350 25 200 0.0 3.2 0.00 0.00 0.00 25 930.8
20260905010846 25 323 0.0 4.8 0.00 0.00 0.00 26 930.8
20260905010341 25 278 0.0 12.9 0.00 0.00 0.00 25 930.9
20260905005837 25 345 0.0 0.0 0.00 0.00 0.00 26 930.9
20260905005333 26 235 14.5 20.9 0.00 0.00 0.00 24 931.1
20260905004828 26 312 0.0 11.3 0.00 0.00 0.00 25 931.2
20260905004322 26 252 0.0 11.3 0.00 0.00 0.00 24 931.3
20260905003818 26 244 9.7 20.9 0.00 0.00 0.00 24 931.3
20260905003314 26 248 1.6 11.3 0.00 0.00 0.00 24 931.1
20260905002809 26 209 1.6 3.2 0.00 0.00 0.00 24 931.1
20260905002309 26 188 4.8 17.7 0.00 0.00 0.00 25 931.2
20260905001804 26 218 4.8 11.3 0.00 0.00 0.00 24 931.3
20260905001303 26 236 3.2 24.1 0.00 0.00 0.00 24 931.7
20260905000759 26 213 6.4 20.9 0.00 0.00 0.00 24 931.5
20260905000255 26 215 12.9 24.1 0.00 0.00 0.00 24 931.2
20260904235749 27 188 1.6 25.7 0.00 0.00 0.00 24 931.3
20260904235244 27 253 4.8 24.1 0.00 0.00 0.00 24 931.3
20260904234739 27 287 9.7 20.9 0.00 0.00 0.00 24 931.2
20260904234234 27 212 11.3 17.7 0.00 0.00 0.00 24 930.8
20260904233730 27 242 12.9 22.5 0.00 0.00 0.00 24 930.9
20260904233226 26 216 8.0 16.1 0.00 0.00 0.00 24 930.9
20260904232723 26 199 4.8 12.9 0.00 0.00 0.00 24 931.0
20260904232219 27 250 24.1 29.0 0.00 0.00 0.00 23 930.8
20260904231714 27 233 8.0 20.9 0.00 0.00 0.00 24 931.0
20260904231209 27 234 1.6 22.5 0.00 0.00 0.00 24 930.8
20260904230708 27 343 1.6 12.9 0.00 0.00 0.00 24 930.8
20260904230203 27 246 9.7 17.7 0.00 0.00 0.00 24 930.8
20260904225701 27 237 14.5 22.5 0.00 0.00 0.00 24 930.9
20260904225156 27 211 8.0 20.9 0.00 0.00 0.00 25 930.9
20260904224651 27 251 9.7 17.7 0.00 0.00 0.00 24 931.1
20260904224150 27 211 14.5 17.7 0.00 0.00 0.00 23 931.2
20260904223650 27 253 6.4 32.2 0.00 0.00 0.00 25 931.0
20260904223145 27 151 0.0 9.7 0.00 0.00 0.00 25 930.8
20260904222641 27 231 1.6 25.7 0.00 0.00 0.00 25 930.9
20260904222137 26 267 14.5 29.0 0.00 0.00 0.00 25 931.0
20260904221637 27 225 14.5 25.7 0.00 0.00 0.00 24 931.0
20260904221137 27 239 6.4 27.4 0.00 0.00 0.00 24 931.0
20260904220632 27 16 3.2 17.7 0.00 0.00 0.00 24 931.3